Torna al catalogo

STARLINK-31510

AttivoComunicazioniVLEO
NORAD 59575·PAYLOAD·🇺🇸 United States

Lanciato Apr 23, 2024 da Cape Canaveral Space Force Station

Loading…

Prossimi Passaggi (prossime 24 ore)

TLE

AggiornatoSource: CelesTrak SupGP

Epoca: Sep 14, 2026, 20:55 UTC

1 59575C 24076M   26257.87201389  .00045969  00000+0  16648-2 0  2576
2 59575  43.0044  17.2343 0001895 278.6506 116.9150 15.27558349    18

Traccia STARLINK-31510 in tempo reale con AllMySat

Download on the App Store